Theta_e
308 310 312 315 316 320 322 329 339 348 348 345 341 340 336 341 343 343 344 343 339 338 339 340 338 338 337 338 339 339 338 337 338 335 335 337 340 342 342 344 345 346 347
305 308 310 314 317 317 320 322 327 336 343 344 346 345 343 345 345 345 345 345 341 343 344 345 343 342 339 340 340 340 338 338 339 335 335 331 335 339 342 343 344 347 349
304 306 309 313 316 317 319 320 322 326 334 341 346 347 346 346 344 346 347 348 346 347 348 347 346 344 342 341 342 341 341 338 337 339 335 331 328 334 338 340 342 345 344
306 306 310 312 313 315 317 320 322 323 324 334 338 345 342 340 344 346 348 349 348 348 349 350 347 346 344 345 343 342 341 341 337 335 337 340 338 330 327 336 337 339 340
305 307 309 310 311 314 315 319 321 323 326 327 333 335 341 341 345 345 352 354 351 351 350 351 348 347 346 345 345 341 342 341 339 337 337 336 336 337 331 327 330 334 337
307 309 309 310 311 312 314 316 319 323 325 325 328 332 338 342 340 342 341 343 346 349 351 350 350 349 347 346 345 344 343 342 341 341 341 337 333 332 330 328 332 331 334
307 307 307 308 310 311 314 315 317 320 322 323 325 329 334 338 340 341 339 341 340 342 347 349 348 347 349 349 347 344 344 343 341 342 340 339 338 337 334 334 332 330 331
306 306 307 308 308 310 313 315 316 317 319 320 323 329 333 333 336 340 338 339 339 341 348 346 348 348 347 347 346 343 343 345 343 343 340 339 339 337 335 334 331 328 328
305 306 307 308 308 310 312 314 315 317 318 318 323 327 330 335 338 345 347 341 345 341 344 345 346 347 347 347 347 344 345 345 345 342 341 337 336 335 336 337 335 331 324
305 306 307 307 309 311 312 315 316 316 317 318 322 326 329 333 337 341 341 343 341 341 342 345 347 347 347 349 348 347 347 346 344 339 337 337 339 340 337 336 335 333 329
304 304 305 307 309 310 311 314 314 316 316 318 322 326 328 332 333 335 337 339 341 341 341 343 345 346 348 348 348 347 346 344 341 340 341 340 339 336 335 334 333 331 330
304 304 305 307 309 309 311 312 314 314 315 319 322 326 329 331 331 332 335 338 339 341 341 343 344 347 347 348 346 345 343 340 338 338 338 337 335 336 335 333 334 333 332
303 305 307 308 308 308 311 313 314 314 315 318 324 328 330 330 330 332 336 338 339 341 343 344 345 346 347 345 343 343 340 336 336 333 335 337 336 335 334 334 333 331 331
304 305 308 308 309 314 315 316 318 319 317 320 326 329 332 330 331 335 337 339 340 342 344 346 347 347 345 342 339 337 339 341 337 335 339 336 336 335 335 333 333 331 330
302 304 307 309 312 313 314 314 318 320 320 321 327 331 335 332 333 336 338 340 342 343 345 346 346 345 343 339 341 342 341 340 338 338 337 338 334 327 330 332 332 332 329
301 302 306 307 310 311 312 313 315 320 323 325 330 335 334 333 335 337 340 341 343 344 344 344 343 341 338 310 317 330 338 338 337 336 336 336 325 323 315 316 318 328 329
301 301 304 305 308 311 312 312 314 318 324 324 331 335 335 335 335 336 339 340 340 342 342 338 339 340 330 305 308 314 337 336 336 336 336 335 334 328 332 312 312 314 313
300 302 304 305 307 312 313 314 314 315 324 322 331 332 336 336 336 338 340 340 342 342 340 339 337 330 316 302 302 308 336 336 336 336 336 337 336 333 332 328 328 330 331
302 304 305 307 308 309 312 313 312 313 322 322 330 332 336 334 336 338 338 337 333 335 332 327 327 326 321 300 301 318 335 334 333 334 335 335 334 307 305 329 329 330 327
304 304 305 306 306 308 309 310 312 318 321 329 333 335 336 335 335 335 333 333 332 327 329 329 331 317 321 299 301 321 331 330 328 329 329 308 324 300 303 326 329 325 324
304 308 308 307 308 310 309 309 317 320 322 331 336 336 336 335 332 331 328 326 326 326 326 324 324 325 323 314 300 306 330 328 326 328 326 324 299 297 300 310 327 324 324
305 307 307 310 311 311 311 315 316 323 326 331 333 332 331 329 329 326 325 323 323 322 322 322 323 322 322 306 301 302 309 314 328 323 323 314 297 297 299 312 298 301 312
304 307 308 311 314 315 316 314 320 324 327 329 328 328 328 327 325 323 321 321 323 322 322 323 321 320 321 317 297 297 299 305 325 327 311 296 295 296 301 298 300 302 325
303 305 306 308 312 314 315 319 323 327 327 327 326 329 325 324 324 324 324 325 324 323 323 322 321 320 320 320 322 321 317 304 308 305 308 305 308 305 308 312 316 326 324
303 304 305 309 312 313 314 320 323 326 328 327 327 326 326 323 318 318 326 326 328 323 325 323 322 320 320 322 314 318 325 323 312 315 320 322 319 319 320 322 322 323 324
302 305 311 309 312 318 319 323 325 326 327 324 324 320 319 320 319 318 313 295 299 298 300 305 316 319 304 297 297 297 297 298 300 318 318 318 318 318 318 319 320 322 317
Wind_Speed
9 10 13 11 8 5 6 4 9 10 9 9 10 10 12 11 9 9 10 10 10 11 8 7 9 8 10 9 10 8 9 6 5 4 6 8 9 9 8 6 7 9 9
7 11 12 11 10 8 7 6 5 7 9 8 7 9 8 10 11 10 11 12 13 13 12 12 8 10 8 12 11 10 5 5 6 5 4 5 5 7 7 6 7 9 6
8 9 9 11 11 12 11 8 7 6 8 11 9 7 6 4 6 9 10 13 16 16 16 14 10 11 11 10 11 11 10 7 5 11 6 4 5 3 2 5 6 7 6
10 7 9 10 9 11 11 11 8 7 5 9 11 15 13 12 11 11 10 10 16 17 16 13 13 13 10 10 10 9 9 9 8 5 10 6 2 3 4 3 4 5 5
11 6 8 10 12 11 11 11 12 11 8 5 10 11 13 10 10 9 10 11 10 14 14 15 16 14 10 10 10 10 11 9 8 8 6 12 8 6 5 5 4 5 5
7 6 6 9 11 11 11 10 11 12 10 8 6 11 13 12 11 12 10 9 8 9 13 14 13 12 10 10 10 10 12 11 11 9 9 8 6 9 7 6 5 6 4
7 7 8 11 12 14 13 10 10 14 13 13 10 9 13 14 14 13 9 10 8 8 10 13 13 11 11 9 9 11 10 12 11 12 10 6 4 3 5 6 4 5 4
5 8 11 13 12 13 14 14 12 13 12 14 14 9 12 11 10 11 10 10 9 10 8 12 12 11 10 9 10 9 9 11 10 13 8 7 6 5 5 6 6 4 5
8 10 13 13 14 14 15 14 16 15 13 14 13 12 12 14 12 14 11 11 10 8 9 12 11 9 9 11 11 9 10 10 10 9 8 6 6 5 6 4 5 5 6
14 13 14 16 15 16 15 15 15 16 15 14 14 13 13 14 14 12 13 12 11 11 10 11 10 10 10 12 12 9 10 10 7 6 8 7 6 6 5 5 4 4 5
16 19 20 18 17 17 16 15 14 15 15 15 15 15 14 14 13 13 13 13 10 11 11 12 11 12 12 12 12 11 10 10 9 9 10 9 7 5 5 5 4 4 4
21 20 21 21 18 15 15 14 13 14 14 16 16 16 14 13 13 15 14 12 13 12 12 12 13 13 13 13 13 12 10 11 11 10 10 9 6 8 6 5 5 4 4
20 20 20 20 16 13 14 17 18 18 16 16 16 16 15 14 15 14 13 13 13 13 13 14 14 15 15 14 9 12 11 9 9 9 8 10 10 8 6 5 5 5 4
18 18 17 14 11 11 13 16 18 17 16 16 16 17 16 14 13 12 14 15 14 15 14 14 14 14 14 13 10 9 10 11 10 9 10 10 10 10 9 7 7 6 5
19 17 15 14 13 13 15 17 18 17 14 16 17 18 15 12 11 13 13 13 14 14 14 14 13 13 12 9 13 12 11 10 10 9 9 9 9 7 7 7 8 8 5
21 19 14 16 17 15 16 19 19 18 16 17 17 15 14 13 14 13 13 14 14 14 14 14 14 13 9 12 11 11 10 10 10 9 9 8 8 7 8 7 9 9 9
21 19 16 14 17 15 17 19 20 20 20 16 17 15 15 16 16 16 15 14 14 14 13 12 12 12 10 10 11 10 9 9 8 8 8 7 6 7 9 6 6 6 5
19 15 14 15 15 18 17 19 19 20 19 15 14 14 17 18 16 15 16 15 14 15 13 13 13 13 7 8 9 8 8 6 6 6 7 8 9 9 9 11 10 9 8
20 17 16 15 15 17 18 20 17 20 17 16 12 15 17 17 17 18 17 15 13 13 11 10 10 11 8 7 10 9 8 6 6 5 6 7 8 9 9 11 11 9 6
18 17 17 15 14 14 14 23 20 19 15 16 16 16 17 17 19 17 16 13 13 14 11 12 10 10 10 7 8 8 6 7 5 5 5 3 5 11 11 7 10 10 7
20 18 18 15 16 14 16 19 21 16 11 14 15 16 15 17 17 17 13 14 14 14 12 13 10 10 9 7 8 7 6 6 7 7 5 4 8 10 9 9 7 7 9
20 19 16 15 15 15 14 17 16 10 8 13 15 15 15 13 14 18 14 14 14 14 13 13 10 7 7 5 6 4 4 7 7 6 5 5 7 9 10 9 11 12 9
18 16 15 15 16 11 11 16 10 11 9 12 13 15 16 16 16 16 15 12 11 12 11 10 9 7 6 5 8 8 8 6 8 7 9 10 11 11 10 14 14 12 7
19 18 16 15 12 8 11 11 13 14 15 15 15 17 16 15 14 11 11 13 11 10 10 9 9 8 7 6 6 6 8 12 9 12 6 8 10 11 10 8 6 5 5
20 20 18 16 19 13 11 14 13 15 18 17 15 16 14 15 12 9 8 10 8 8 10 9 9 8 7 6 6 6 7 7 8 10 7 8 7 7 6 6 5 5 6
23 23 15 20 19 15 17 17 17 17 20 17 13 11 12 13 12 11 10 19 12 13 13 11 9 5 11 11 9 10 13 13 11 5 6 6 7 6 6 6 6 5 4
Wind_Direction
293 319 321 329 342 353 358 284 225 216 190 200 214 220 218 220 221 224 218 201 195 185 222 226 193 199 217 224 214 206 220 224 222 248 242 251 238 233 237 232 236 237 231
290 310 316 317 332 328 342 345 293 241 219 212 215 226 216 218 219 214 211 200 196 193 208 217 197 204 212 219 208 203 203 225 196 234 252 259 203 217 222 228 236 243 238
263 284 297 311 319 324 330 328 316 288 251 227 222 216 229 239 202 210 214 209 197 201 205 208 206 200 209 212 204 202 206 221 203 220 232 210 236 174 170 213 231 238 235
260 255 281 296 313 316 317 316 315 300 240 237 231 221 223 228 227 225 218 205 204 205 203 203 202 206 205 210 205 199 212 215 214 209 226 242 296 214 179 193 209 217 229
280 258 282 301 311 314 313 310 313 304 300 236 225 231 226 230 242 241 236 215 206 210 205 207 202 201 208 207 201 193 206 208 219 217 195 216 225 243 263 229 204 220 220
266 275 308 309 304 312 314 312 310 303 308 301 262 234 242 225 228 230 230 223 213 206 205 208 206 203 202 201 201 203 207 206 216 220 213 197 188 207 211 235 224 236 182
283 302 325 326 314 316 316 310 298 297 304 295 284 259 244 237 231 238 242 241 220 214 212 206 201 198 198 196 197 201 207 207 212 212 208 191 185 174 209 234 220 232 176
302 295 306 315 309 303 306 303 290 279 287 287 280 270 251 244 231 229 227 235 233 228 205 199 202 193 183 187 193 202 209 204 209 211 206 205 198 195 189 233 216 204 203
301 298 307 311 305 301 295 291 289 281 276 274 274 267 254 241 235 226 215 221 223 220 193 194 197 183 182 188 190 200 195 196 204 202 200 200 204 200 212 218 228 244 229
296 294 297 307 301 294 288 284 273 272 276 273 266 260 252 239 232 231 225 219 206 195 193 190 187 179 186 187 183 185 186 193 196 189 186 194 192 189 197 207 207 225 257
309 306 303 302 295 292 284 282 272 267 270 269 261 254 251 243 234 228 228 222 200 190 190 191 183 185 185 176 177 179 178 192 184 184 188 185 169 179 188 186 178 188 209
298 301 299 298 296 289 287 285 282 277 272 269 266 254 246 235 222 220 219 207 201 189 190 184 186 183 175 171 177 178 183 180 182 174 181 172 171 176 178 184 189 196 191
300 303 300 291 298 292 295 299 294 284 279 275 266 258 247 224 216 213 204 198 194 185 181 183 181 175 170 171 172 180 174 168 169 161 176 176 175 176 178 189 186 175 186
299 301 298 304 300 302 303 312 303 288 280 274 266 256 248 226 209 197 189 186 182 176 172 177 174 170 165 165 158 165 171 175 167 171 184 177 182 185 180 184 179 175 184
294 295 298 314 299 297 307 319 316 297 282 279 264 251 243 216 195 187 180 172 169 166 164 162 164 163 167 156 167 173 174 161 166 178 181 181 188 177 188 185 182 177 175
296 292 285 303 300 311 317 315 312 300 293 286 265 245 221 190 181 163 160 159 155 156 156 161 158 157 166 128 130 153 159 171 176 178 182 177 171 186 185 189 183 183 165
301 287 272 292 299 317 313 304 303 299 291 281 254 217 196 172 166 153 151 150 150 150 154 149 149 148 129 126 139 148 163 171 175 178 181 180 182 188 189 153 151 127 66
302 301 286 288 298 294 296 298 296 294 287 286 224 194 182 171 144 147 151 147 146 147 141 141 144 126 111 126 136 163 156 165 171 188 190 191 186 193 177 164 170 173 175
290 286 279 281 280 285 290 297 297 286 281 275 199 190 170 159 144 147 148 142 130 131 126 120 117 120 122 140 157 169 159 155 158 159 176 182 178 144 163 170 165 159 152
284 278 276 271 264 261 286 287 283 269 266 256 195 178 165 154 143 137 136 130 121 113 114 114 113 111 127 142 150 158 147 142 138 129 136 43 161 152 152 146 162 162 160
287 281 277 271 262 245 238 249 274 250 247 239 177 165 157 139 133 125 122 119 112 110 113 114 117 116 120 124 146 154 148 144 156 157 146 131 134 145 154 142 168 168 150
290 287 279 265 256 238 234 261 261 230 236 187 158 139 134 130 125 118 116 115 114 115 123 120 115 107 108 83 117 123 87 158 155 136 124 122 131 134 136 146 125 128 140
284 282 279 268 262 223 237 274 217 194 169 138 135 132 130 127 124 119 117 115 120 125 133 132 128 123 116 92 73 81 115 102 125 124 106 113 111 113 92 120 133 160 145
294 288 277 265 248 217 238 238 180 167 148 138 131 128 125 121 120 116 126 127 132 136 134 131 133 130 126 124 137 137 113 98 94 105 113 107 88 77 114 133 159 136 145
300 290 272 247 242 232 223 190 171 150 141 130 123 124 116 110 99 83 121 127 133 140 141 139 141 141 144 142 123 143 146 136 130 131 134 126 120 127 129 128 127 137 145
290 284 246 228 222 187 155 154 158 156 144 128 123 121 121 118 118 112 84 40 64 72 75 87 126 101 108 117 112 106 112 125 145 122 129 126 131 133 133 133 132 128 125